SL-16 DEB, 22422

Orbit data source: Space-Track

SL-16 DEB, 22422 is space debris in LEO originally from a launch on Fri, 25 Dec 1992 UTC launched from the Tyuratam Missile And Space Complex (TTMTR). Debris objects in space refer to the collection of defunct objects orbiting the Earth. Examples of debris include non-operational satellites, rocket bodies, and fragments generated from explosions, collisions, or faulty payload assembly.

Loading next visibility...
Identifier
22422, 1992-093DP
Orbit
LEO
Country
Flag of CISCIS
Related business
Manufacturer
Unknown
Mission
Spacecraft
Bus & Motor
Unknown
Mass
Unknown
Launch date (UTC)
1992-12-25 (33 years ago)
Launch vehicle
Unknown
Launch site
Tyuratam Missile And Space Complex (TTMTR)
Object type
Payload
Rocket body
Debris
Shape & HBR
Unknown shape, 0.1 m
Radar Cross Section
Small (<0.1 m²)

Expand to show TLE details & history
Last TLE update: 16 hours ago

TLE from 16 hours ago
0 SL-16 DEB
1 22422U 92093DP  26036.76985129  .00000467  00000-0  33130-3 0  9999
2 22422  71.1845 297.4546 0094390 271.3194 146.9505 14.00549093685991
Epoch: 2026-02-05T18:28Z
TLE epoch observation values (Epoch: 2026-02-05T18:28:35.151Z)
Latitude
54.21692°
Longitude
-87.55741°
Altitude
958.006 km
Speed
7.349 km/s
True Right ascension
21h 42m 01s
True Declination
54° 03' 29"
Sunlit
Object was in daylight at epoch
Visualization orbit readout
Latitude
Unknown
Longitude
Unknown
Altitude
Unknown
Speed
Unknown
Apparent Right ascension
Unknown
Apparent Declination
Unknown
Sunlit
N/A
Visualization observer readout
Local Sidereal Time
12:07:59
Azimuth
Unknown
Elevation
Unknown
Doppler factor
Unknown
Orbital elements
Apogee altitude
958.417 km
Perigee altitude
821.213 km
Semi-major axis
7,267.952 km
Eccentricity
0.00944
Inclination
71.1845°
RAAN
297.4546°
Arg. of periapsis
271.3194°
True anomaly
147.53459°
Mean anomaly
146.9505°
Eccentric anomaly
147.24312°
Mean motion
3.50288 °/min
Orbital period
102.77 mins
BSTAR
0.0003313
Loading maneuver chart data...
Computing Atmospheric mass density...
Loading historical data...
Loading historical data...
Loading historical data...
Loading historical data...
Loading historical data...
Loading historical data...
Loading historical data...

Documentation

Showing up to 5 results
|